When you browse on this site, cookies collect data to enhance your experience and personalize the content and advertising you see.
Visit our Privacy Policy to learn more. By continuing to use the site, you agree to this use of cookies and data.
  • In Czech Republic
  • List of Countries
  • For 7 days
  • Water Temperature
  • Satellite Maps
  • Weather Map
  • Weather Widgets
  • user-avatar
    Login

    Hourly Weather Bregenz

    Today, 17 June, Monday

    Time Temperature Precipitation Wind Pressure Humidity
    00:00 +8°C° 0 mm 1 mps 649 mmHg 95%
    01:00 +8°C° 0 mm 1 mps 649 mmHg 96%
    02:00 +8°C° 0 mm 1 mps 648 mmHg 95%
    03:00 +7°C° 0 mm 1 mps 648 mmHg 95%
    04:00 +7°C° 0 mm 1 mps 648 mmHg 95%
    05:00 +9°C° 0 mm 1 mps 648 mmHg 91%
    06:00 +10°C° 0 mm 1 mps 649 mmHg 88%
    07:00 +10°C° 0 mm 0 mps 649 mmHg 84%
    08:00 +13°C° 0 mm 1 mps 650 mmHg 77%
    09:00 +15°C° 0 mm 1 mps 650 mmHg 70%
    10:00 +18°C° 0 mm 1 mps 650 mmHg 62%
    11:00 +19°C° 0 mm 1 mps 650 mmHg 60%
    12:00 +19°C° 0 mm 2 mps 650 mmHg 57%
    13:00 +20°C° 0 mm 2 mps 650 mmHg 54%
    14:00 +20°C° 0.2 mm 2 mps 650 mmHg 57%
    15:00 +20°C° 0.2 mm 2 mps 650 mmHg 60%
    16:00 +20°C° 0.2 mm 3 mps 650 mmHg 62%
    17:00 +19°C° 0.6 mm 2 mps 649 mmHg 70%
    18:00 +18°C° 0.6 mm 2 mps 649 mmHg 79%
    19:00 +16°C° 0.6 mm 1 mps 649 mmHg 87%
    20:00 +15°C° 0.2 mm 1 mps 649 mmHg 89%
    21:00 +14°C° 0.2 mm 1 mps 648 mmHg 91%
    22:00 +12°C° 0.2 mm 1 mps 648 mmHg 93%
    23:00 +12°C° 0 mm 1 mps 648 mmHg 93%

    Tomorrow, 18 June, Tuesday

    Time Temperature Precipitation Wind Pressure Humidity
    00:00 +11°C° 0 mm 1 mps 648 mmHg 93%
    01:00 +11°C° 0 mm 1 mps 647 mmHg 93%
    02:00 +10°C° 0 mm 1 mps 647 mmHg 93%
    03:00 +10°C° 0 mm 1 mps 647 mmHg 93%
    04:00 +10°C° 0 mm 1 mps 647 mmHg 93%
    05:00 +11°C° 0 mm 1 mps 647 mmHg 91%
    06:00 +12°C° 0 mm 1 mps 648 mmHg 88%
    07:00 +13°C° 0 mm 0 mps 648 mmHg 86%
    08:00 +16°C° 0 mm 1 mps 649 mmHg 78%
    09:00 +19°C° 0 mm 1 mps 649 mmHg 69%
    10:00 +21°C° 0 mm 1 mps 649 mmHg 60%
    11:00 +21°C° 0.2 mm 1 mps 649 mmHg 60%
    12:00 +22°C° 0.2 mm 1 mps 649 mmHg 59%
    13:00 +21°C° 0.2 mm 2 mps 649 mmHg 59%
    14:00 +22°C° 0.9 mm 1 mps 649 mmHg 61%
    15:00 +21°C° 0.9 mm 1 mps 649 mmHg 62%
    16:00 +21°C° 0.9 mm 1 mps 648 mmHg 64%
    17:00 +20°C° 0.5 mm 1 mps 648 mmHg 68%
    18:00 +18°C° 0.5 mm 0 mps 648 mmHg 72%
    19:00 +17°C° 0.5 mm 0 mps 648 mmHg 76%
    20:00 +16°C° 0.2 mm 1 mps 648 mmHg 78%
    21:00 +15°C° 0.2 mm 1 mps 647 mmHg 80%
    22:00 +13°C° 0.2 mm 1 mps 647 mmHg 82%
    23:00 +13°C° 0 mm 1 mps 647 mmHg 82%

    Day after tomorrow, 19 June, Wednesday

    Time Temperature Precipitation Wind Pressure Humidity
    00:00 +12°C° 0 mm 1 mps 646 mmHg 82%
    01:00 +12°C° 0 mm 2 mps 646 mmHg 82%
    02:00 +12°C° 0 mm 2 mps 646 mmHg 82%
    03:00 +10°C° 0 mm 2 mps 645 mmHg 83%
    04:00 +10°C° 0 mm 2 mps 645 mmHg 83%
    05:00 +12°C° 0 mm 1 mps 646 mmHg 80%
    06:00 +14°C° 0 mm 1 mps 646 mmHg 77%
    07:00 +15°C° 0 mm 1 mps 647 mmHg 75%
    08:00 +18°C° 0 mm 1 mps 647 mmHg 66%
    09:00 +20°C° 0 mm 1 mps 648 mmHg 56%
    10:00 +23°C° 0 mm 1 mps 648 mmHg 47%
    11:00 +23°C° 0 mm 1 mps 648 mmHg 45%
    12:00 +24°C° 0 mm 1 mps 648 mmHg 42%
    13:00 +24°C° 0 mm 2 mps 648 mmHg 40%
    14:00 +24°C° 0 mm 2 mps 648 mmHg 41%
    15:00 +24°C° 0 mm 1 mps 648 mmHg 41%
    16:00 +24°C° 0 mm 1 mps 648 mmHg 42%
    17:00 +22°C° 0.2 mm 1 mps 647 mmHg 51%
    18:00 +19°C° 0.2 mm 2 mps 647 mmHg 60%
    19:00 +17°C° 0.2 mm 2 mps 647 mmHg 69%
    20:00 +15°C° 1.9 mm 2 mps 647 mmHg 76%
    21:00 +13°C° 1.9 mm 1 mps 646 mmHg 84%
    22:00 +11°C° 1.9 mm 1 mps 646 mmHg 91%
    23:00 +11°C° 0 mm 1 mps 646 mmHg 90%

    20 June, Thursday

    Time Temperature Precipitation Wind Pressure Humidity
    00:00 +10°C° 0 mm 2 mps 646 mmHg 89%
    01:00 +9°C° 0 mm 2 mps 645 mmHg 88%
    02:00 +10°C° 0 mm 1 mps 645 mmHg 87%
    03:00 +10°C° 0 mm 1 mps 645 mmHg 86%
    04:00 +10°C° 0 mm 1 mps 645 mmHg 86%
    05:00 +11°C° 0 mm 1 mps 646 mmHg 84%
    06:00 +13°C° 0 mm 1 mps 646 mmHg 81%
    07:00 +13°C° 0 mm 0 mps 646 mmHg 79%
    08:00 +15°C° 0.1 mm 1 mps 647 mmHg 75%
    09:00 +18°C° 0.1 mm 1 mps 647 mmHg 70%
    10:00 +19°C° 0.1 mm 1 mps 648 mmHg 65%
    11:00 +19°C° 0.7 mm 1 mps 648 mmHg 68%
    12:00 +18°C° 0.7 mm 2 mps 648 mmHg 71%
    13:00 +19°C° 0.7 mm 2 mps 648 mmHg 74%
    14:00 +19°C° 1.1 mm 1 mps 648 mmHg 75%
    15:00 +19°C° 1.1 mm 1 mps 648 mmHg 77%
    16:00 +19°C° 1.1 mm 1 mps 647 mmHg 78%
    17:00 +18°C° 0.6 mm 1 mps 647 mmHg 81%
    18:00 +18°C° 0.6 mm 1 mps 647 mmHg 85%
    19:00 +16°C° 0.6 mm 1 mps 647 mmHg 88%
    20:00 +15°C° 0.1 mm 1 mps 647 mmHg 88%
    21:00 +14°C° 0.1 mm 1 mps 647 mmHg 89%
    22:00 +13°C° 0.1 mm 1 mps 647 mmHg 90%
    23:00 +12°C° 0 mm 1 mps 647 mmHg 90%

    21 June, Friday

    Time Temperature Precipitation Wind Pressure Humidity
    00:00 +12°C° 0 mm 1 mps 647 mmHg 90%
    01:00 +11°C° 0 mm 1 mps 647 mmHg 90%
    02:00 +11°C° 0 mm 1 mps 646 mmHg 90%
    03:00 +11°C° 0 mm 1 mps 646 mmHg 90%
    04:00 +11°C° 0 mm 1 mps 646 mmHg 90%
    05:00 +12°C° 0 mm 1 mps 646 mmHg 88%
    06:00 +13°C° 0 mm 1 mps 647 mmHg 86%
    07:00 +13°C° 0 mm 0 mps 647 mmHg 85%
    08:00 +16°C° 0 mm 1 mps 648 mmHg 78%
    09:00 +18°C° 0 mm 1 mps 648 mmHg 70%
    10:00 +20°C° 0 mm 1 mps 648 mmHg 63%
    11:00 +20°C° 0.6 mm 1 mps 648 mmHg 67%
    12:00 +20°C° 0.6 mm 1 mps 648 mmHg 70%
    13:00 +20°C° 0.6 mm 1 mps 648 mmHg 74%
    14:00 +19°C° 1.9 mm 2 mps 647 mmHg 78%
    15:00 +18°C° 1.9 mm 2 mps 647 mmHg 81%
    16:00 +18°C° 1.9 mm 2 mps 647 mmHg 85%
    17:00 +16°C° 1.4 mm 2 mps 647 mmHg 88%
    18:00 +15°C° 1.4 mm 1 mps 647 mmHg 91%
    19:00 +14°C° 1.4 mm 1 mps 646 mmHg 94%
    20:00 +13°C° 1.1 mm 1 mps 647 mmHg 95%
    21:00 +13°C° 1.1 mm 1 mps 647 mmHg 96%
    22:00 +12°C° 1.1 mm 1 mps 647 mmHg 97%
    23:00 +12°C° 1 mm 1 mps 647 mmHg 97%

    22 June, Saturday

    Time Temperature Precipitation Wind Pressure Humidity
    00:00 +12°C° 1 mm 1 mps 647 mmHg 97%
    01:00 +12°C° 1 mm 1 mps 646 mmHg 97%
    02:00 +11°C° 1.6 mm 1 mps 646 mmHg 97%
    03:00 +11°C° 1.6 mm 1 mps 646 mmHg 97%
    04:00 +11°C° 1.6 mm 1 mps 646 mmHg 97%
    05:00 +11°C° 2.4 mm 1 mps 646 mmHg 97%
    06:00 +11°C° 2.4 mm 1 mps 646 mmHg 96%
    07:00 +11°C° 2.4 mm 1 mps 646 mmHg 95%
    08:00 +12°C° 0.4 mm 1 mps 646 mmHg 89%
    09:00 +13°C° 0.4 mm 1 mps 647 mmHg 83%
    10:00 +14°C° 0.4 mm 1 mps 647 mmHg 78%
    11:00 +15°C° 0.4 mm 1 mps 647 mmHg 76%
    12:00 +16°C° 0.4 mm 2 mps 647 mmHg 75%
    13:00 +16°C° 0.4 mm 2 mps 647 mmHg 74%
    14:00 +16°C° 0.9 mm 2 mps 647 mmHg 78%
    15:00 +15°C° 0.9 mm 2 mps 647 mmHg 83%
    16:00 +15°C° 0.9 mm 1 mps 647 mmHg 87%
    17:00 +14°C° 0.7 mm 1 mps 647 mmHg 89%
    18:00 +14°C° 0.7 mm 1 mps 647 mmHg 91%
    19:00 +13°C° 0.7 mm 1 mps 647 mmHg 94%
    20:00 +12°C° 0 mm 1 mps 648 mmHg 95%
    21:00 +11°C° 0 mm 1 mps 648 mmHg 95%
    22:00 +9°C° 0 mm 0 mps 648 mmHg 96%
    23:00 +9°C° 0 mm 0 mps 648 mmHg 96%
    Show more